UAE8UW KJFK-OMDB

Flight info

Callsign UAE8UW
Flight time N/A
Altitude 31000
Route BETTE DCT ACK DCT KANNI N97B SUPRY/M083F310 DCT 46N050W 48N040W 50N030W 52N020W DCT LIMRI/N0482F310 DCT XETBO/M083F330 DCT LULOX/N0478F330 DCT LIZAD DCT JSY DCT ARSUK/N0477F350 DCT RESMI UN491 POGZI DCT GELTA DCT LUVAL DCT SHARA DCT DEVDI DCT RIPUS DCT RESIA DCT VIC DCT LAPAB DCT LABIN DCT PINDO DCT AKINA DCT VANZA DCT LAKTO L324 GENIV L550 DATOK/N0478F370 L550 KARIK B411 DEESA Y415 NIMAR G662 KSA M321 RESAL T533 RAPMA DCT KUVSO DCT KATIT DCT PEKEM M628 RIGIL G783 ELUDA/N0474F350 G783 ASPED Q308 KIPOK Q568 IMPED
Aircraft B77W/H-SDE2E3FGHIJ1J3J4J5M1P2RWXY/LB1D1

Departure

Time N/A
Airport John F. Kennedy International Airport (KJFK)

Arrival

Time 2026-05-05 16:57
Airport Dubai International Airport (OMDB)
Time Latitude Longitude Altitude Speed Heading
2026-05-05 16:43 24.64393 56.13054 15956 ft 398 kts 10°
2026-05-05 16:43 24.67118 56.13519 15440 ft 395 kts
2026-05-05 16:44 24.69795 56.13959 14925 ft 393 kts
2026-05-05 16:44 24.72490 56.14433 14406 ft 391 kts
2026-05-05 16:44 24.75169 56.14920 13891 ft 389 kts
2026-05-05 16:44 24.77837 56.15231 13367 ft 384 kts 359°
2026-05-05 16:45 24.80479 56.14903 12901 ft 381 kts 346°
2026-05-05 16:45 24.82947 56.14037 12845 ft 365 kts 336°
2026-05-05 16:45 24.85211 56.12889 12742 ft 353 kts 334°
2026-05-05 16:45 24.87397 56.11764 12654 ft 340 kts 334°
2026-05-05 16:46 24.89508 56.10691 12571 ft 328 kts 335°
2026-05-05 16:46 24.91521 56.09682 12491 ft 316 kts 335°
2026-05-05 16:46 24.93490 56.08699 12400 ft 305 kts 335°
2026-05-05 16:46 24.95390 56.07752 12292 ft 294 kts 334°
2026-05-05 16:47 24.97028 56.06491 11984 ft 286 kts 309°
2026-05-05 16:47 24.98003 56.04612 11651 ft 281 kts 289°
2026-05-05 16:47 24.98628 56.02580 11308 ft 280 kts 287°
2026-05-05 16:47 24.99231 56.00537 10961 ft 281 kts 287°
2026-05-05 16:48 24.99835 55.98480 10614 ft 283 kts 287°
2026-05-05 16:48 25.00432 55.96447 10261 ft 283 kts 287°
2026-05-05 16:48 25.01040 55.94386 9914 ft 283 kts 287°
2026-05-05 16:48 25.01649 55.92329 9564 ft 282 kts 287°
2026-05-05 16:49 25.02260 55.90272 9221 ft 282 kts 287°
2026-05-05 16:49 25.02871 55.88218 8873 ft 282 kts 287°
2026-05-05 16:49 25.03482 55.86166 8532 ft 282 kts 287°
2026-05-05 16:49 25.04095 55.84110 8191 ft 282 kts 287°
2026-05-05 16:50 25.04707 55.82056 7851 ft 282 kts 287°
2026-05-05 16:50 25.05317 55.80008 7557 ft 280 kts 287°
2026-05-05 16:50 25.05921 55.77983 7309 ft 276 kts 287°
2026-05-05 16:50 25.06513 55.75995 6957 ft 277 kts 287°
2026-05-05 16:51 25.07114 55.73972 6592 ft 278 kts 287°
2026-05-05 16:51 25.07717 55.71942 6221 ft 279 kts 287°
2026-05-05 16:51 25.08326 55.69897 5787 ft 283 kts 287°
2026-05-05 16:51 25.08944 55.67820 5348 ft 286 kts 287°
2026-05-05 16:52 25.09559 55.65750 5132 ft 280 kts 287°
2026-05-05 16:52 25.10154 55.63763 4839 ft 265 kts 289°
2026-05-05 16:52 25.10956 55.61990 4519 ft 253 kts 301°
2026-05-05 16:52 25.11882 55.60395 4185 ft 242 kts 302°
2026-05-05 16:53 25.12763 55.58879 3854 ft 233 kts 301°
2026-05-05 16:53 25.13620 55.57384 3613 ft 229 kts 301°
2026-05-05 16:53 25.14459 55.55908 3396 ft 225 kts 301°
2026-05-05 16:53 25.15272 55.54454 3121 ft 221 kts 301°
2026-05-05 16:54 25.16069 55.53021 2827 ft 217 kts 301°
2026-05-05 16:54 25.16852 55.51610 2525 ft 214 kts 301°
2026-05-05 16:54 25.17623 55.50223 2255 ft 209 kts 301°
2026-05-05 16:54 25.18362 55.48894 1993 ft 197 kts 302°
2026-05-05 16:55 25.19058 55.47641 1718 ft 185 kts 302°
2026-05-05 16:55 25.19708 55.46472 1466 ft 172 kts 302°
2026-05-05 16:55 25.20329 55.45356 1291 ft 170 kts 302°
2026-05-05 16:55 25.20922 55.44288 1048 ft 160 kts 302°
2026-05-05 16:56 25.21487 55.43272 837 ft 154 kts 302°
2026-05-05 16:56 25.22049 55.42267 635 ft 153 kts 302°
2026-05-05 16:56 25.22595 55.41276 427 ft 150 kts 302°
2026-05-05 16:56 25.23139 55.40295 240 ft 150 kts 302°
2026-05-05 16:57 25.23688 55.39310 52 ft 151 kts 302°
2026-05-05 16:57 25.24195 55.38398 31 ft 118 kts 301°
2026-05-05 16:57 25.24526 55.37801 28 ft 69 kts 301°
2026-05-05 16:57 25.24727 55.37436 27 ft 36 kts 296°
2026-05-05 16:58 25.24781 55.37184 29 ft 30 kts 274°
2026-05-05 16:58 25.24789 55.37018 27 ft 14 kts 267°
2026-05-05 16:58 25.24731 55.36934 26 ft 15 kts 210°
2026-05-05 16:58 25.24643 55.36875 26 ft 15 kts 212°
2026-05-05 16:59 25.24553 55.36814 26 ft 15 kts 211°
2026-05-05 16:59 25.24461 55.36752 30 ft 16 kts 213°
2026-05-05 16:59 25.24393 55.36668 26 ft 14 kts 243°
2026-05-05 16:59 25.24371 55.36563 26 ft 14 kts 268°
2026-05-05 17:00 25.24393 55.36457 29 ft 14 kts 295°
2026-05-05 17:00 25.24445 55.36362 27 ft 15 kts 302°
2026-05-05 17:00 25.24496 55.36271 30 ft 12 kts 302°
2026-05-05 17:00 25.24544 55.36236 26 ft 9 kts
2026-05-05 17:01 25.24603 55.36267 27 ft 10 kts 32°
2026-05-05 17:01 25.24647 55.36297 26 ft 6 kts 32°
2026-05-05 17:01 25.24662 55.36308 27 ft 0 kts 31°